Preview of NWS' New Version of Forecast
This preview is not operational and should not be used for support decisions.

Regional Weather Roundup (RWR)

Issued by Gray - Portland, ME (GYX)

                            
000
ASUS41 KGYX 232010
RWRGYX
WEATHER ROUNDUP FOR MAINE AND NEW HAMPSHIRE
NATIONAL WEATHER SERVICE GRAY ME
400 PM EDT TUE APR 23 2019

MEZ002-005-006-010-012-015-018-020-021-024-026-027-029-232100-
MAINE
  
CITY           SKY/WX    TMP DP  RH WIND       PRES   REMARKS
PORTLAND       CLOUDY    47  41  80 N12       29.92F                  
SANFORD        CLOUDY    53  44  71 N6        29.89F                  
BAR HARBOR     LGT RAIN  44  42  93 N12       29.88F                  
WISCASSET      CLOUDY    44  40  85 VRB7      29.92F                  
ROCKLAND       CLOUDY    44  42  93 N8        29.89F                  
FRYEBURG       CLOUDY    53  43  68 VRB6      29.89F                  
LEWISTONAUBURN   N/A     44  39  82 NE14      29.93F                  
AUGUSTA        CLOUDY    42  39  89 N9G21     29.93F                  
WATERVILLE     CLOUDY    42  39  89 NE10G18   29.91F                  
BANGOR         CLOUDY    44  41  89 N14       29.92F                  
GREENVILLE       N/A     40  34  79 NE8       29.89F                  
MILLINOCKET    CLOUDY    41  38  89 N7        29.97F FOG              
HOULTON        LGT RAIN  40  36  86 NE15G23   29.96F                  
PRESQUE ISLE   CLOUDY    39  34  82 NE17G24   30.02F                  
FRENCHVILLE    CLOUDY    40  30  67 NE12G21   30.03F                  
CARIBOU        CLOUDY    39  34  82 NE10      30.02F                  
$$

NHZ002-005-008-009-011-012-014-232100-
NEW HAMPSHIRE
  
CITY           SKY/WX    TMP DP  RH WIND       PRES   REMARKS
PORTSMOUTH     CLOUDY    51  44  75 E8        29.88F                  
ROCHESTER      CLOUDY    53  46  77 VRB5      29.89F                  
NASHUA         CLOUDY    61  50  67 E3        29.87F                  
MANCHESTER     PTSUNNY   61  48  62 NE7       29.86F                  
CONCORD        PTSUNNY   58  46  64 VRB5      29.86F                  
LACONIA        PTSUNNY   56  46  69 VRB5      29.87F                  
PLYMOUTH       PTSUNNY   61  49  64 SE5       29.84F                  
BERLIN         CLOUDY    55  43  63 VRB5      29.86F                  
WHITEFIELD     FAIR      57  43  59 MISG      29.84F                  
JAFFREY        FAIR      64  50  60 CALM      29.85F                  
KEENE          FAIR      69  50  50 CALM      29.83F                  
LEBANON        FAIR      70  47  43 W6        29.80F                  
MT WASHINGTON  PTSUNNY   41  37  87 N15         N/A                   
$$

VTZ005-007-008-232100-
VERMONT
  
CITY           SKY/WX    TMP DP  RH WIND       PRES   REMARKS
ST JOHNSBURY     N/A     63  46  54 MISG      29.80F                  
MONTPELIER     FAIR      67  44  43 NW5       29.83F                  
BURLINGTON     FAIR      68  41  37 W7        29.80F                  
$$

MAZ007-012-024-CTZ003-RIZ002-NYZ038-NYZ072-232100-
SOUTHERN NEW ENGLAND AND NY
  
CITY           SKY/WX    TMP DP  RH WIND       PRES   REMARKS
BOSTON         CLOUDY    49  44  83 E12       29.92S                  
WORCESTER      FAIR      60  51  72 NE5       29.87F                  
NANTUCKET      PTSUNNY   51  44  77 N20G26    29.90F                  
PROVIDENCE     FAIR      62  51  67 E7        29.89F                  
HARTFORD       FAIR      74  51  44 S13       29.82F                  
ALBANY         PTSUNNY   73  44  35 SE7       29.81F                  
NEW YORK CITY  PTSUNNY   68  47  46 S16       29.86F                  
$$

ANZ081-ANZ082-ANZ150-NHZ014-MEZ023>029-232100-
COASTAL MARINE OBSERVATIONS
  
STATION/POSITION TIME  TEMP    WIND        PRES    WAVE
                       AIR SEA DIR/SP/G            HT/PER
                 (UTC) (F)     (DEG/KT/KT) (MB)    (FT/S)
ISLE OF SHOALS   1900   44      50/ 13/ 15 1012.7F
JEFFREYS LEDGE   1908      42                N/A     7/ 8
$$

.............KEY..............
   WCI - WIND CHILL
   TC  - TEMPERATURE IN CELSIUS
   VSB - VISIBILITY IN MILES
   HX  - HEAT INDEX
   FAIR- INDICATES FEW OR NO CLOUDS BELOW 12,000 FT, WITH NO 
         SIGNIFICANT WEATHER AND/OR OBSTRUCTIONS TO VISIBILITY.